Location: Ethel Rock
(53.4667°N, 4.5667°W)
Time: 05:34:53
(UTC+00:00)

Cosmos 2322 Rocket - Pass Details

Date: 24 October 2020
Orbit: 832 x 851 km, 71.0° (Epoch: 25 November)

Event Time Altitude Azimuth Distance (km) Brightness Sun altitude
Rises 06:04:12 0° 328° (NNW) 3,428 5.0 -9.3°
Reaches altitude 10° 06:06:43 10° 333° (NNW) 2,487 4.3 -8.9°
Maximum altitude 06:12:20 55° 51° (NE) 1,011 2.9 -8.1°
Drops below altitude 10° 06:17:53 10° 129° (SE) 2,463 5.7 -7.3°
Sets 06:20:23 0° 134° (SE) 3,392 6.4 -6.9°
